This is the latest recevied weather packets stored in our database for station/object N5ZPR. If no packets are shown the sender has not sent any weather packets the latest 10 day(s).
| Time | Temp. | Humidity | Pressure | Rain* | Wind** | Luminosity | Snow |
|---|---|---|---|---|---|---|---|
| 1777566003 | 16.11° C | 93% | 1012.9 hPa | 1.78 mm | - | - | - |
| 1777563603 | 16.11° C | 90% | 1013.4 hPa | 0.25 mm | - | - | - |
| 1777560604 | 16.67° C | 85% | 1012.9 hPa | 0 mm | - | - | - |
| 1777552203 | 15.56° C | 89% | 1011.3 hPa | 0 mm | - | - | - |
| 1777551604 | 15.56° C | 89% | 1011.3 hPa | 0 mm | - | - | - |
| 1777548603 | 15.56° C | 88% | 1011.3 hPa | 0 mm | - | - | - |
| 1777547403 | 16.11° C | 88% | 1011.3 hPa | 0 mm | - | - | - |
| 1777546804 | 16.11° C | 88% | 1011.3 hPa | 0 mm | - | - | - |
| 1777543203 | 17.22° C | 85% | 1011.6 hPa | 0 mm | - | - | - |
| 1777542004 | 17.22° C | 85% | 1011.4 hPa | 0 mm | - | - | - |
| 1777540804 | 17.22° C | 84% | 1011.1 hPa | 0 mm | - | - | - |
| 1777535403 | 17.22° C | 82% | 1011.5 hPa | 0 mm | - | - | - |
| 1777532405 | 17.78° C | 82% | 1012.2 hPa | 0 mm | - | - | - |
| 1777530003 | 17.22° C | 82% | 1012.7 hPa | 0 mm | - | - | - |
| 1777528803 | 17.22° C | 82% | 1012.7 hPa | 0 mm | - | - | - |
| 1777519803 | 16.67° C | 83% | 1012.7 hPa | 0 mm | - | - | - |
| 1777513803 | 16.11° C | 83% | 1011.3 hPa | 0 mm | - | - | - |
| 1777512004 | 16.11° C | 83% | 1010.9 hPa | 0 mm | - | - | - |
| 1777506604 | 16.67° C | 82% | 1009.6 hPa | 0 mm | - | - | - |
| 1777505404 | 16.67° C | 82% | 1010.2 hPa | 0 mm | - | - | - |
| 1777498203 | 17.78° C | 81% | 1010.7 hPa | 0 mm | - | - | - |
| 1777480803 | 16.11° C | 80% | 1013.4 hPa | 0 mm | - | - | - |
| 1777472404 | 15.56° C | 78% | 1012.8 hPa | 0 mm | - | - | - |
| 1777467603 | 16.11° C | 76% | 1012.3 hPa | 0 mm | - | - | - |
| 1777462804 | 17.22° C | 75% | 1010.9 hPa | 0 mm | - | - | - |
* Rain latest hour (hover to see other rain measurements)
** Current wind speed in m/s (hover to see current wind gust speed)